[[{"header":{"parameterUnit":"m.s-1","parameterCategory":1,"la1":30.2992,"la2":30.254,"lo1":-89.0895,"lo2":-89.0443,"dy":0.0025,"dx":0.0025,"nx":19,"ny":19,"refTime":"2026-05-22T21:00:00:Z","depth":0,"parameterNumber":2,"parameterNumberName":"U-component_of_WINDS"},"data":[0,0,0,-0.725,-0.7251,-0.7275,-0.7275,-0.7309,-0.7309,0,0,0,0,0,0,0,0,0,0,0,-0.7244,-0.7244,-0.725,-0.7251,-0.7274,-0.7275,-0.7309,-0.7309,0,0,0,0,0,0,0,0,0,0,0,-0.7243,-0.7244,-0.7244,-0.7251,-0.7274,-0.7275,-0.7309,-0.729,0,0,0,0,0,0,0,0,0,0,-0.7266,-0.726,-0.7244,-0.7244,-0.7251,-0.7274,-0.7275,-0.7289,-0.7291,-0.7299,0,-0.7305,0,-0.7307,-0.7312,-0.7312,0,0,0,-0.7251,-0.7258,-0.7264,-0.7244,-0.7251,-0.7274,-0.7264,-0.729,-0.7293,-0.7302,-0.7305,-0.7306,-0.7308,-0.7312,-0.7312,-0.7353,-0.7354,0,0,-0.725,-0.7249,-0.7262,-0.7266,-0.726,-0.7263,-0.7265,-0.7292,-0.7296,-0.7305,-0.7307,-0.7309,-0.7312,-0.7312,-0.7353,-0.7354,0,0,0,-0.7246,-0.7248,-0.7253,-0.7264,-0.7268,-0.7264,-0.7266,-0.7295,-0.7296,-0.7308,-0.7309,-0.7312,-0.7313,-0.7353,-0.7353,-0.7361,0,0,0,-0.7245,-0.7245,-0.7252,-0.7252,-0.7268,-0.7281,-0.7268,-0.7294,-0.7297,-0.7309,-0.7312,-0.7313,-0.7353,-0.7353,-0.736,-0.7365,0,0,0,-0.7242,-0.7245,-0.7248,-0.7252,-0.7261,-0.7281,-0.7284,-0.7295,-0.7298,-0.7312,-0.7313,-0.7353,-0.7353,-0.7359,-0.7364,-0.7376,0,0,0,-0.7239,-0.7255,-0.7248,-0.7267,-0.7261,-0.7284,-0.7284,-0.7302,-0.7314,-0.7312,-0.7353,-0.7353,-0.7359,-0.7363,-0.7375,-0.7386,-0.7389,0,0,-0.7259,-0.7257,-0.7269,-0.7263,-0.7287,-0.7281,-0.7307,-0.732,-0.7323,-0.7344,-0.7345,-0.736,-0.7364,-0.7375,-0.7412,-0.7415,0,0,0,-0.7275,-0.7283,-0.7289,-0.73,-0.731,-0.7319,-0.7328,-0.7333,-0.735,-0.7333,-0.7367,-0.737,-0.7377,-0.7382,-0.7385,-0.7391,-0.7355,-0.7355,-0.7355,-0.7302,-0.7304,-0.7323,-0.7328,-0.7339,-0.7348,-0.7358,-0.7366,-0.7366,-0.7375,-0.7381,-0.7402,-0.7408,-0.741,-0.7417,-0.7386,-0.7386,-0.7386,-0.7386,-0.7332,-0.7344,-0.7343,-0.736,-0.7363,-0.7379,-0.7389,-0.7389,-0.7405,-0.7398,-0.7404,-0.7396,-0.7413,-0.742,-0.7387,-0.7387,-0.7387,-0.7387,-0.7386,-0.7351,-0.7357,-0.7362,-0.7378,-0.739,-0.7395,-0.7411,-0.7413,-0.7416,-0.7422,-0.7429,-0.7429,-0.743,-0.7425,-0.7425,-0.7425,-0.7425,-0.7425,-0.7425,-0.7368,-0.7373,-0.7385,-0.7396,-0.7404,-0.7414,-0.7424,-0.7432,-0.7442,-0.7443,-0.7443,-0.7443,-0.7414,-0.7407,-0.7427,-0.7426,-0.7426,-0.7426,-0.7426,-0.74,-0.7393,-0.7411,-0.7418,-0.7432,-0.7445,-0.7447,-0.7463,-0.7471,-0.7479,-0.7477,-0.7455,-0.7455,-0.7453,-0.7447,-0.7476,-0.7476,-0.7476,-0.7476,-0.7416,-0.7415,-0.7434,-0.7446,-0.7458,-0.7461,-0.7484,-0.7492,-0.75,-0.7505,-0.7501,-0.7494,-0.7491,-0.7492,-0.7489,-0.7484,-0.7522,-0.7522,-0.7522,-0.7436,-0.7436,-0.7454,-0.7459,-0.747,-0.748,-0.7502,-0.7517,-0.7525,-0.7524,-0.7509,-0.7507,-0.7495,-0.7491,-0.7491,-0.7486,-0.7477,0,0]},{"header":{"parameterUnit":"m.s-1","parameterCategory":1,"la1":30.2992,"la2":30.254,"lo1":-89.0895,"lo2":-89.0443,"dy":0.0025,"dx":0.0025,"nx":19,"ny":19,"refTime":"2026-05-22T21:00:00:Z","depth":0,"parameterNumber":3,"parameterNumberName":"V-component_of_WINDS"},"data":[0,0,0,3.0259,3.0262,3.041,3.0411,3.059,3.0592,0,0,0,0,0,0,0,0,0,0,0,3.0212,3.0214,3.0259,3.0263,3.041,3.0411,3.059,3.0592,0,0,0,0,0,0,0,0,0,0,0,3.0212,3.0213,3.0215,3.0263,3.041,3.0411,3.0589,3.0481,0,0,0,0,0,0,0,0,0,0,3.0339,3.0293,3.0213,3.0215,3.0264,3.041,3.0411,3.0476,3.0488,3.052,0,3.055,0,3.0574,3.0603,3.0604,0,0,0,3.0264,3.0283,3.0326,3.0215,3.0265,3.0409,3.0344,3.0482,3.0496,3.0536,3.0553,3.056,3.0577,3.0604,3.0605,3.0792,3.0793,0,0,3.0256,3.0237,3.0317,3.0335,3.0314,3.0339,3.0349,3.0491,3.0507,3.0554,3.0564,3.058,3.0606,3.0607,3.0791,3.0792,0,0,0,3.0232,3.0231,3.0271,3.0327,3.0355,3.0343,3.0354,3.0501,3.0515,3.0566,3.0582,3.0607,3.0609,3.079,3.0792,3.0813,0,0,0,3.0227,3.0217,3.0267,3.0256,3.0352,3.043,3.0361,3.0506,3.0522,3.0581,3.0607,3.061,3.079,3.0791,3.081,3.0825,0,0,0,3.0204,3.0214,3.0234,3.0255,3.0318,3.0428,3.0451,3.051,3.0532,3.0604,3.0611,3.0789,3.0791,3.0808,3.0822,3.0869,0,0,0,3.0173,3.025,3.0234,3.0326,3.0317,3.0441,3.045,3.0543,3.0608,3.0607,3.079,3.0791,3.0807,3.082,3.0867,3.0906,3.092,0,0,3.0259,3.0259,3.0315,3.0306,3.0428,3.042,3.0544,3.0621,3.0644,3.0741,3.0746,3.0811,3.0822,3.0869,3.1007,3.1019,0,0,0,3.0336,3.0375,3.0412,3.0473,3.0535,3.0588,3.0648,3.0676,3.076,3.0691,3.0841,3.0848,3.0876,3.0896,3.0906,3.0931,3.08,3.0799,3.0799,3.0429,3.0456,3.055,3.0596,3.0655,3.0716,3.0766,3.0814,3.0823,3.0858,3.0887,3.0968,3.099,3.0998,3.1024,3.091,3.091,3.091,3.091,3.0557,3.0618,3.063,3.0725,3.0753,3.0832,3.0893,3.0897,3.0974,3.0948,3.0975,3.0945,3.1009,3.1034,3.0912,3.0911,3.0911,3.0911,3.0911,3.0622,3.0655,3.069,3.0781,3.0848,3.0891,3.0965,3.0987,3.1008,3.1034,3.1067,3.1067,3.1069,3.1048,3.1048,3.1049,3.1049,3.1049,3.1049,3.0675,3.0713,3.0774,3.0846,3.0888,3.0946,3.1008,3.1049,3.1101,3.1111,3.1112,3.1117,3.1011,3.0984,3.1054,3.1053,3.1053,3.1052,3.1052,3.0795,3.0772,3.0866,3.0908,3.0994,3.1059,3.1087,3.1169,3.1207,3.1242,3.1242,3.116,3.1162,3.1154,3.1132,3.1236,3.1236,3.1236,3.1236,3.085,3.0853,3.0954,3.1021,3.1088,3.1123,3.1226,3.1274,3.132,3.1344,3.1332,3.1305,3.1296,3.1303,3.1292,3.1272,3.1409,3.1409,3.141,3.0926,3.0937,3.1021,3.1068,3.1136,3.1194,3.1292,3.1366,3.1413,3.1417,3.1364,3.1357,3.1312,3.1296,3.13,3.1282,3.1245,0,0]}]]